This is the latest recevied weather packets stored in our database for station/object KF6FPU-15. If no packets are shown the sender has not sent any weather packets the latest 10 day(s).
| Time | Temp. | Humidity | Pressure | Rain* | Wind** | Luminosity | Snow |
|---|---|---|---|---|---|---|---|
| 1777602710 | 27.78° C | 19% | 1011 hPa | - | - | - | - |
| 1777602110 | 27.22° C | 19% | 1011 hPa | - | - | - | - |
| 1777601510 | 27.22° C | 19% | 1011 hPa | - | - | - | - |
| 1777600910 | 27.78° C | 19% | 1011 hPa | - | - | - | - |
| 1777599710 | 27.78° C | 19% | 1011 hPa | - | - | - | - |
| 1777599110 | 28.33° C | 19% | 1010.9 hPa | - | - | - | - |
| 1777598510 | 27.22° C | 19% | 1011 hPa | - | - | - | - |
| 1777597910 | 27.78° C | 19% | 1011 hPa | - | - | - | - |
| 1777597310 | 27.78° C | 19% | 1010.9 hPa | - | - | - | - |
| 1777596710 | 27.78° C | 19% | 1010.9 hPa | - | - | - | - |
| 1777596110 | 27.78° C | 19% | 1010.9 hPa | - | - | - | - |
| 1777595510 | 27.78° C | 19% | 1010.9 hPa | - | - | - | - |
| 1777594910 | 27.78° C | 19% | 1010.8 hPa | - | - | - | - |
| 1777594310 | 28.33° C | 19% | 1010.8 hPa | - | - | - | - |
| 1777593110 | 28.89° C | 19% | 1011.1 hPa | - | - | - | - |
| 1777592510 | 28.33° C | 19% | 1011.1 hPa | - | - | - | - |
| 1777591910 | 28.89° C | 19% | 1011.1 hPa | - | - | - | - |
| 1777591310 | 28.89° C | 19% | 1011.1 hPa | - | - | - | - |
| 1777590710 | 29.44° C | 19% | 1011.3 hPa | - | - | - | - |
| 1777590110 | 29.44° C | 19% | 1011.4 hPa | - | - | - | - |
| 1777589510 | 29.44° C | 19% | 1011.4 hPa | - | - | - | - |
| 1777588910 | 29.44° C | 19% | 1011.7 hPa | - | - | - | - |
| 1777588310 | 29.44° C | 19% | 1011.8 hPa | - | - | - | - |
| 1777587710 | 29.44° C | 18% | 1012 hPa | - | - | - | - |
| 1777586510 | 30.56° C | 18% | 1012.3 hPa | - | - | - | - |
* Rain since midnight (hover to see other rain measurements)
** Current wind speed in m/s (hover to see current wind gust speed)